Flag for U.S.A. Weather past 2 weeks in Menominee, Michigan, U.S.A.

Now
66 °F

Broken clouds.


Feels Like: 66 °F
Forecast: 58 / 73 °F
Wind: 10 mph from Southeast

Location: Menominee Weather Reporting Station

Current Time: Aug 4, 2015 at 6:07:42 PM

Latest Report: Aug 4, 2015 at 5:35 PM


Visibility: 10 mi

Pressure: 29.94 "Hg

Humidity: 68%

Dew point: 55 °F

Location of MenomineeLocation

Historic Weather in Menominee — Graph

°F

Menominee temperature yesterday

Maximum temperature yesterday: 73 °F (at 12:55 PM)
Minimum temperature yesterday: 55 °F (at 5:15 AM)
Average temperature yesterday: 66 °F

Past Weeks' High & Low Weather Summary

 TemperatureHumidityPressure
High86 °F (Jul 25, 4:35 PM)94% (Jul 28, 2:55 AM)30.04 "Hg (Jul 28, 2:55 AM)
Low54 °F (Jul 22, 1:55 AM)32% (Aug 1, 4:35 PM)29.56 "Hg (Aug 2, 1:15 PM)
Average71 °F63%29.88 "Hg
* Reported Jul 20 5:35 PM — Aug 4 5:15 PM, Menominee, Weather by CustomWeather, © 2015

Note: Actual official high and low records may vary slightly from our data, if they occured in-between our weather recording intervals... More about our weather records

Advertising

Menominee weather history for previous 24 hours

 ConditionsComfort  
Time TempWeatherWind HumidityBarometerVisibility
5:15 PM
Tue, Aug 4
68 °FBroken clouds.9 mph64%29.94 "Hg10 mi
4:55 PM68 °FBroken clouds.13 mph69%29.94 "Hg10 mi
4:35 PM70 °FScattered clouds.13 mph64%29.93 "Hg10 mi
4:15 PM70 °FSunny.8 mph60%29.93 "Hg10 mi
3:55 PM68 °FPassing clouds.6 mph60%29.93 "Hg10 mi
3:35 PM70 °FScattered clouds.8 mph60%29.93 "Hg10 mi
3:15 PM70 °FBroken clouds.9 mph60%29.93 "Hg10 mi
2:55 PM68 °FCloudy.9 mph64%29.93 "Hg10 mi
2:35 PM70 °FPartly sunny.9 mph60%29.93 "Hg10 mi
2:15 PM70 °FScattered clouds.12 mph64%29.92 "Hg10 mi
1:55 PM70 °FScattered clouds.10 mph60%29.92 "Hg10 mi
1:35 PM72 °FScattered clouds.9 mph53%29.92 "Hg10 mi
1:15 PM72 °FScattered clouds.14 mph53%29.91 "Hg10 mi
12:55 PM72 °FPassing clouds.8 mph50%29.91 "Hg10 mi
12:35 PM72 °FSunny.6 mph50%29.91 "Hg10 mi
12:15 PM72 °FPassing clouds.12 mph53%29.91 "Hg10 mi
11:55 AM70 °FBroken clouds.7 mph57%29.92 "Hg10 mi
11:35 AM66 °FBroken clouds.3 mph64%29.93 "Hg10 mi
11:15 AM68 °FBroken clouds.3 mph64%29.92 "Hg10 mi
10:55 AM66 °FPartly sunny.6 mph64%29.92 "Hg10 mi
10:35 AM66 °FOvercast.6 mph64%29.93 "Hg10 mi
10:15 AM64 °FOvercast.3 mph68%29.92 "Hg10 mi
9:55 AM64 °FOvercast.6 mph68%29.92 "Hg10 mi
9:35 AM64 °FOvercast.5 mph73%29.91 "Hg10 mi
9:15 AM64 °FOvercast.8 mph68%29.92 "Hg10 mi
8:55 AM63 °FOvercast.6 mph73%29.91 "Hg10 mi
8:35 AM63 °FOvercast.7 mph73%29.90 "Hg10 mi
8:15 AM63 °FOvercast.10 mph73%29.90 "Hg10 mi
7:55 AM63 °FPartly sunny.7 mph73%29.89 "Hg10 mi
7:35 AM61 °FScattered clouds.8 mph77%29.88 "Hg10 mi
7:15 AM61 °FSunny.5 mph77%29.88 "Hg10 mi
6:55 AM57 °FSunny.3 mph88%29.88 "Hg10 mi
6:35 AM57 °FSunny.5 mph88%29.88 "Hg10 mi
6:15 AM57 °FSunny.No wind88%29.88 "Hg10 mi
5:55 AM57 °FSunny.3 mph82%29.87 "Hg10 mi
5:35 AM57 °FPassing clouds.3 mph88%29.86 "Hg10 mi
5:15 AM59 °FPassing clouds.3 mph82%29.86 "Hg10 mi
4:55 AM59 °FOvercast.3 mph82%29.86 "Hg10 mi
4:35 AM59 °FOvercast.3 mph82%29.86 "Hg10 mi
4:15 AM59 °FPassing clouds.3 mph82%29.85 "Hg10 mi
3:55 AM61 °FOvercast.3 mph77%29.86 "Hg10 mi
3:35 AM61 °FOvercast.3 mph77%29.85 "Hg10 mi
3:15 AM59 °FOvercast.3 mph82%29.85 "Hg10 mi
2:55 AM59 °FPassing clouds.5 mph82%29.85 "Hg10 mi
2:35 AM61 °FPassing clouds.3 mph77%29.84 "Hg10 mi
2:15 AM61 °FOvercast.5 mph77%29.85 "Hg10 mi
1:55 AM61 °FOvercast.3 mph77%29.85 "Hg10 mi
1:35 AM61 °FOvercast.3 mph77%29.85 "Hg10 mi
1:15 AM61 °FMostly cloudy.No wind77%29.84 "Hg10 mi
12:55 AM61 °FOvercast.5 mph77%29.84 "Hg10 mi
12:35 AM63 °FMostly cloudy.5 mph68%29.85 "Hg10 mi
12:15 AM63 °FMostly cloudy.8 mph68%29.85 "Hg10 mi
11:55 PM
Mon, Aug 3
61 °FPartly cloudy.No wind72%29.84 "Hg10 mi
11:35 PM63 °FPassing clouds.No wind68%29.84 "Hg10 mi
10:55 PM63 °FOvercast.No wind68%29.84 "Hg10 mi
10:35 PM63 °FOvercast.No wind68%29.84 "Hg10 mi
10:15 PM61 °FOvercast.No wind72%29.84 "Hg10 mi
9:55 PM63 °FPassing clouds.No wind68%29.84 "Hg10 mi
9:35 PM63 °FClear.No wind68%29.83 "Hg10 mi
8:55 PM64 °FPassing clouds.No wind64%29.83 "Hg10 mi
8:35 PM66 °FPassing clouds.No wind60%29.82 "Hg10 mi
8:15 PM66 °FClear.No wind60%29.81 "Hg10 mi
7:55 PM68 °FSunny.No wind53%29.81 "Hg10 mi
7:35 PM70 °FSunny.5 mph50%29.81 "Hg10 mi
7:15 PM72 °FSunny.5 mph47%29.81 "Hg10 mi
6:55 PM72 °FPassing clouds.6 mph47%29.80 "Hg10 mi
6:35 PM72 °FPassing clouds.10 mph50%29.79 "Hg10 mi
6:15 PM73 °FSunny.10 mph47%29.79 "Hg10 mi
Weather by CustomWeather, © 2015

See weather overviewHow to use our weather pages